WB0OCV Weather Reports


time (UTC)temp
C
wind
direction
speed
KPH
gust
KPH
rain 1hr
cm
rain 24hr
cm
rain mn
cm
humidity
%
barometer
mb
20260507075914 11 129 0.0 0.0 0.00 0.03 0.03 99 1007.6
20260507075411 11 129 0.0 0.0 0.00 0.03 0.03 99 1007.9
20260507074908 11 129 0.0 0.0 0.00 0.03 0.03 99 1008.4
20260507074404 11 120 0.0 0.0 0.00 0.03 0.03 99 1008.1
20260507073902 11 118 0.0 0.0 0.00 0.03 0.03 99 1007.9
20260507073358 11 118 0.0 0.0 0.00 0.03 0.03 99 1008.1
20260507072855 11 119 0.0 0.0 0.00 0.03 0.03 99 1008.1
20260507072353 11 119 0.0 0.0 0.13 0.03 0.03 99 1008.3
20260507071850 11 92 0.0 0.0 0.00 0.00 0.00 99 1008.3
20260507071347 11 137 0.0 0.0 0.00 0.00 0.00 99 1008.2
20260507070843 11 120 0.0 1.6 0.00 0.00 0.00 99 1008.5
20260507070341 11 134 0.0 0.0 0.00 0.00 0.00 99 1008.6
20260507065838 11 133 0.0 0.0 0.00 0.00 0.00 99 1008.5
20260507065334 11 145 0.0 3.2 0.00 0.00 0.00 99 1008.6
20260507064831 11 218 3.2 3.2 0.00 0.00 0.00 99 1008.6
20260507064330 11 224 3.2 4.8 0.00 0.00 0.00 99 1008.3
20260507063827 11 174 1.6 3.2 0.00 0.00 0.00 99 1008.2
20260507063324 11 139 0.0 1.6 0.00 0.00 0.00 99 1008.5
20260507062821 11 342 3.2 3.2 0.00 0.00 0.00 99 1008.4
20260507062318 11 176 0.0 0.0 0.00 0.00 0.00 99 1008.6
20260507061816 11 159 1.6 3.2 0.00 0.00 0.00 99 1008.7
20260507061314 11 237 3.2 4.8 0.00 0.00 0.00 99 1008.7
20260507060812 11 245 4.8 6.4 0.00 0.00 0.00 99 1009.0
20260507060308 11 245 3.2 4.8 0.00 0.00 0.00 99 1008.9
20260507055805 11 185 3.2 4.8 0.00 0.00 0.00 99 1008.9
20260507055300 12 260 3.2 3.2 0.00 0.00 0.00 99 1009.3
20260507054756 12 139 0.0 1.6 0.00 0.00 0.00 99 1009.3
20260507054253 12 188 1.6 3.2 0.00 0.00 0.00 99 1009.2
20260507053750 12 233 3.2 4.8 0.00 0.00 0.00 99 1009.1
20260507053248 12 208 3.2 4.8 0.00 0.00 0.00 99 1009.4
20260507052747 12 133 0.0 4.8 0.00 0.00 0.00 99 1009.5
20260507052243 12 152 1.6 3.2 0.00 0.00 0.00 99 1009.4
20260507051741 12 154 0.0 0.0 0.00 0.00 0.00 99 1009.3
20260507051237 12 203 1.6 3.2 0.00 0.00 0.00 99 1009.5
20260507050734 12 177 1.6 3.2 0.00 0.00 0.00 99 1009.5
20260507050231 12 168 1.6 3.2 0.00 0.00 0.00 99 1009.7
20260507045728 12 179 3.2 11.3 0.00 0.00 0.00 99 1009.7
20260507045224 12 94 1.6 3.2 0.00 0.00 0.00 99 1009.6
20260507044722 12 167 0.0 0.0 0.00 0.00 0.00 99 1009.6
20260507044218 12 183 1.6 3.2 0.00 0.00 0.00 99 1009.6
20260507043714 12 159 1.6 3.2 0.00 0.00 0.00 99 1009.5
20260507043211 12 63 3.2 3.2 0.00 0.00 0.00 99 1009.5
20260507042708 12 171 1.6 1.6 0.00 0.00 0.00 99 1009.5
20260507042202 12 165 1.6 6.4 0.00 0.00 0.00 99 1009.7
20260507041700 12 129 0.0 6.4 0.00 0.00 0.00 99 1009.7
20260507041156 12 229 3.2 6.4 0.00 0.00 0.00 99 1009.9
20260507040653 12 231 4.8 6.4 0.00 0.00 0.00 99 1009.9
20260507040150 12 98 1.6 6.4 0.00 0.00 0.00 99 1010.1
20260507035646 12 153 4.8 9.7 0.00 0.71 0.71 99 1010.0
20260507035142 12 129 0.0 4.8 0.00 0.71 0.71 99 1010.1
20260507034639 12 136 0.0 3.2 0.00 0.71 0.71 99 1009.9
20260507034136 13 168 0.0 3.2 0.00 0.71 0.71 99 1010.0
20260507033635 13 277 4.8 9.7 0.00 0.71 0.71 99 1010.0
20260507033131 13 201 3.2 12.9 0.00 0.71 0.71 99 1010.1
20260507032629 13 173 3.2 9.7 0.00 0.71 0.71 99 1010.1
20260507032125 13 174 1.6 6.4 0.00 0.71 0.71 99 1009.9
20260507031622 13 188 1.6 4.8 0.00 0.71 0.71 99 1009.8
20260507031118 13 241 4.8 9.7 0.00 0.71 0.71 99 1009.8
20260507030615 13 164 3.2 6.4 0.00 0.71 0.71 99 1009.8
20260507030113 13 201 3.2 9.7 0.00 0.71 0.71 99 1009.8
20260507025610 13 200 1.6 4.8 0.00 0.71 0.71 99 1009.7
20260507025107 13 182 0.0 4.8 0.00 0.71 0.71 99 1010.0
20260507024605 13 135 1.6 4.8 0.00 0.71 0.71 99 1010.0
20260507024102 13 134 1.6 6.4 0.00 0.71 0.71 99 1010.1
20260507023557 13 138 0.0 4.8 0.00 0.71 0.71 99 1010.1
20260507023055 13 173 4.8 6.4 0.00 0.71 0.71 99 1010.5
20260507022551 13 149 3.2 9.7 0.00 0.71 0.71 99 1010.3
20260507022046 13 145 1.6 6.4 0.00 0.71 0.71 99 1010.6
20260507021543 13 214 3.2 4.8 0.00 0.71 0.71 99 1010.5
20260507021039 13 41 3.2 4.8 0.00 0.71 0.71 99 1010.7
20260507020537 13 210 1.6 6.4 0.00 0.71 0.71 99 1010.6
20260507020034 13 286 4.8 6.4 0.00 0.71 0.71 99 1010.7
20260507015532 13 139 1.6 6.4 0.00 0.71 0.71 99 1010.5
20260507015029 13 240 4.8 9.7 0.00 0.71 0.71 99 1010.6
20260507014526 13 269 4.8 11.3 0.00 0.71 0.71 99 1010.7
20260507014021 13 201 8.0 11.3 0.00 0.71 0.71 99 1010.8
20260507013518 13 203 6.4 9.7 0.00 0.71 0.71 99 1010.8
20260507013016 13 258 4.8 11.3 0.00 0.71 0.71 99 1010.9
20260507012512 13 209 1.6 6.4 0.00 0.71 0.71 99 1010.8
20260507012009 13 188 6.4 11.3 0.00 0.71 0.71 99 1011.0
20260507011506 13 259 4.8 12.9 0.00 0.71 0.71 99 1010.7
20260507011002 13 192 6.4 14.5 0.00 0.71 0.71 99 1010.8
20260507010456 13 182 3.2 4.8 0.00 0.71 0.71 99 1010.8
20260507005953 13 188 1.6 9.7 0.18 0.71 0.71 99 1010.8
20260507005451 14 169 3.2 9.7 0.18 0.71 0.71 99 1010.6
20260507004947 14 123 1.6 4.8 0.00 0.69 0.69 99 1010.8
20260507004444 14 243 3.2 6.4 0.00 0.69 0.69 99 1010.7
20260507003942 13 114 1.6 9.7 0.00 0.69 0.69 99 1010.6
20260507003437 13 224 1.6 4.8 0.13 0.69 0.69 99 1010.7
20260507002932 13 122 1.6 4.8 0.30 0.69 0.69 99 1010.7
20260507002428 13 129 0.0 3.2 0.30 0.66 0.66 99 1010.5
20260507001926 13 174 3.2 4.8 0.30 0.64 0.64 99 1010.7
20260507001422 13 329 1.6 4.8 0.30 0.61 0.61 99 1010.8
20260507000920 13 130 3.2 14.5 0.18 0.56 0.56 99 1010.8
20260507000415 13 173 3.2 4.8 0.18 0.56 0.56 99 1010.7
20260506235911 13 183 1.6 4.8 0.00 0.53 0.53 99 1010.6
20260506235409 13 168 1.6 3.2 0.18 0.53 0.53 99 1010.8
20260506234904 13 180 6.4 9.7 0.30 0.53 0.53 99 1010.7
20260506234402 13 145 1.6 3.2 0.30 0.51 0.51 99 1010.7
20260506233859 13 158 1.6 4.8 0.48 0.48 0.48 99 1010.6
20260506233355 13 167 3.2 6.4 0.43 0.46 0.46 99 1010.9
20260506232852 13 119 3.2 3.2 0.30 0.41 0.41 99 1010.7
20260506232348 13 148 1.6 3.2 0.30 0.38 0.38 98 1011.0
20260506231844 13 300 3.2 12.9 0.30 0.36 0.36 98 1010.9
20260506231342 13 170 3.2 3.2 0.30 0.33 0.33 98 1011.3
20260506230839 13 146 3.2 6.4 0.18 0.28 0.28 98 1011.4
20260506230336 13 124 1.6 6.4 0.48 0.28 0.28 98 1011.5
20260506225832 13 120 1.6 3.2 0.13 0.23 0.23 98 1011.2
20260506225330 13 147 3.2 4.8 0.18 0.20 0.20 98 1011.2
20260506224827 14 135 0.0 4.8 0.30 0.20 0.20 97 1011.3
20260506224324 14 132 0.0 3.2 0.43 0.18 0.18 97 1011.4
20260506223820 14 212 3.2 4.8 0.79 0.15 0.15 96 1011.4
20260506223315 14 184 4.8 6.4 0.48 0.10 0.10 95 1011.5
20260506222813 14 167 1.6 9.7 0.00 0.03 0.03 94 1011.4
20260506222308 14 104 4.8 12.9 0.00 0.03 0.03 94 1011.4
20260506221806 14 160 3.2 3.2 0.13 0.03 0.03 95 1011.3
20260506221304 15 168 3.2 4.8 0.13 0.03 0.03 94 1011.3
20260506220802 15 133 1.6 3.2 0.00 0.00 0.00 93 1011.5
20260506220302 15 159 3.2 6.4 0.00 0.00 0.00 92 1011.4
20260506215759 15 98 3.2 6.4 0.00 0.00 0.00 87 1011.2
20260506215254 15 145 3.2 4.8 0.00 0.00 0.00 86 1011.6
20260506214750 16 127 1.6 9.7 0.00 0.00 0.00 84 1011.4
20260506214248 16 179 3.2 4.8 0.00 0.00 0.00 84 1011.5
20260506213746 16 230 6.4 9.7 0.00 0.00 0.00 84 1011.5
20260506213243 15 159 3.2 11.3 0.00 0.00 0.00 85 1011.7
20260506212740 15 202 4.8 11.3 0.00 0.00 0.00 86 1011.5
20260506212236 15 198 4.8 11.3 0.00 0.00 0.00 85 1011.8
20260506211731 16 182 6.4 12.9 0.00 0.00 0.00 85 1011.7
20260506211228 16 46 3.2 9.7 0.00 0.00 0.00 83 1011.7
20260506210725 16 137 1.6 4.8 0.00 0.00 0.00 81 1011.7
20260506210221 16 156 4.8 6.4 0.00 0.00 0.00 81 1011.7
20260506205719 16 160 6.4 11.3 0.00 0.00 0.00 81 1011.8
20260506205214 16 155 3.2 6.4 0.00 0.00 0.00 81 1011.5
20260506204711 16 139 3.2 4.8 0.00 0.00 0.00 82 1011.7
20260506204209 16 162 1.6 6.4 0.00 0.00 0.00 82 1011.6
20260506203707 16 174 6.4 11.3 0.00 0.00 0.00 81 1012.0
20260506203203 16 196 1.6 9.7 0.00 0.00 0.00 80 1012.1
20260506202701 16 182 3.2 4.8 0.00 0.00 0.00 80 1012.0
20260506202157 16 187 6.4 11.3 0.00 0.00 0.00 79 1012.1
20260506201654 17 196 6.4 9.7 0.00 0.00 0.00 79 1011.9
20260506201150 17 177 3.2 14.5 0.00 0.00 0.00 78 1012.0
20260506200648 17 191 3.2 14.5 0.00 0.00 0.00 78 1012.3
20260506200144 16 184 3.2 11.3 0.00 0.00 0.00 78 1012.2
20260506195641 16 201 4.8 6.4 0.00 0.00 0.00 79 1012.3
20260506195137 16 176 3.2 4.8 0.00 0.00 0.00 78 1012.3
20260506194635 17 191 4.8 9.7 0.00 0.00 0.00 77 1012.5
20260506194131 17 104 1.6 4.8 0.00 0.00 0.00 77 1012.7
20260506193629 16 139 1.6 11.3 0.00 0.00 0.00 78 1012.6
20260506193126 16 275 4.8 9.7 0.00 0.00 0.00 78 1012.6
20260506192622 16 224 1.6 6.4 0.00 0.00 0.00 79 1012.6
20260506192118 16 178 1.6 3.2 0.00 0.00 0.00 78 1012.6
20260506191615 16 172 4.8 4.8 0.00 0.00 0.00 78 1012.7
20260506191111 16 196 3.2 9.7 0.00 0.00 0.00 78 1012.5
20260506190609 16 249 6.4 6.4 0.00 0.00 0.00 78 1012.5
20260506190105 17 191 4.8 6.4 0.00 0.00 0.00 78 1012.6
20260506185603 17 180 1.6 14.5 0.00 0.00 0.00 77 1012.6
20260506185059 17 155 3.2 4.8 0.00 0.00 0.00 75 1012.8
20260506184556 17 228 4.8 16.1 0.00 0.00 0.00 75 1012.8
20260506184054 17 234 6.4 9.7 0.00 0.00 0.00 75 1013.1
20260506183549 17 167 3.2 11.3 0.00 0.00 0.00 75 1013.1
20260506183046 17 236 1.6 6.4 0.00 0.00 0.00 75 1013.1
20260506182544 18 302 3.2 9.7 0.00 0.00 0.00 73 1013.3
20260506182041 18 188 3.2 6.4 0.00 0.00 0.00 74 1013.3
20260506181539 18 181 1.6 6.4 0.00 0.00 0.00 74 1013.5
20260506181035 18 175 3.2 9.7 0.00 0.00 0.00 73 1013.5
20260506180532 18 156 4.8 6.4 0.00 0.00 0.00 72 1013.6
20260506180028 19 221 4.8 6.4 0.00 0.00 0.00 72 1013.7
20260506175525 19 157 1.6 9.7 0.00 0.00 0.00 71 1013.7
20260506175021 20 127 1.6 9.7 0.00 0.00 0.00 69 1013.8
20260506174520 20 233 3.2 4.8 0.00 0.00 0.00 67 1013.6
20260506174016 20 129 1.6 11.3 0.00 0.00 0.00 70 1013.8
20260506173514 20 186 3.2 12.9 0.00 0.00 0.00 70 1013.8
20260506173010 20 165 6.4 11.3 0.00 0.00 0.00 68 1014.0
20260506172508 20 241 4.8 9.7 0.00 0.00 0.00 68 1013.7
20260506172004 20 132 3.2 6.4 0.00 0.00 0.00 68 1014.0
20260506171501 20 209 4.8 9.7 0.00 0.00 0.00 68 1014.0
20260506170959 21 183 4.8 9.7 0.00 0.00 0.00 67 1014.1
20260506170455 20 97 3.2 4.8 0.00 0.00 0.00 70 1014.1
20260506165954 19 250 4.8 6.4 0.00 0.00 0.00 71 1014.3
20260506165452 20 210 4.8 14.5 0.00 0.00 0.00 71 1014.3
20260506164948 19 181 3.2 12.9 0.00 0.00 0.00 72 1014.4
20260506164445 19 173 3.2 4.8 0.00 0.00 0.00 72 1014.4
20260506163943 19 192 3.2 6.4 0.00 0.00 0.00 72 1014.4
20260506163437 19 121 1.6 9.7 0.00 0.00 0.00 71 1014.6
20260506162932 20 214 3.2 4.8 0.00 0.00 0.00 69 1014.5
20260506162430 20 213 4.8 6.4 0.00 0.00 0.00 70 1014.4
20260506161927 20 147 3.2 11.3 0.00 0.00 0.00 70 1014.7
20260506161426 20 81 3.2 12.9 0.00 0.00 0.00 68 1014.7
20260506160923 20 139 3.2 9.7 0.00 0.00 0.00 67 1014.8
20260506160420 21 104 3.2 6.4 0.00 0.00 0.00 66 1014.8
20260506155918 20 152 3.2 4.8 0.00 0.00 0.00 66 1015.1
20260506155415 20 262 4.8 11.3 0.00 0.00 0.00 66 1015.1
20260506153536 20 190 6.4 11.3 0.00 0.00 0.00 70 1015.3
20260506153034 20 197 3.2 4.8 0.00 0.00 0.00 68 1015.4
20260506152531 21 184 3.2 9.7 0.00 0.00 0.00 66 1015.5
20260506152029 20 205 3.2 9.7 0.00 0.00 0.00 69 1015.3
20260506151526 20 134 3.2 11.3 0.00 0.00 0.00 68 1015.4
20260506151023 20 259 6.4 6.4 0.00 0.00 0.00 66 1015.5
20260506150520 20 238 4.8 4.8 0.00 0.00 0.00 69 1015.3
20260506150017 20 188 3.2 6.4 0.00 0.00 0.00 70 1015.5
20260506145513 19 195 4.8 4.8 0.00 0.00 0.00 70 1015.4
20260506145011 20 156 3.2 9.7 0.00 0.00 0.00 70 1015.4
20260506144507 20 142 3.2 4.8 0.00 0.00 0.00 69 1015.2
20260506144005 18 131 3.2 4.8 0.00 0.00 0.00 72 1015.2
20260506143502 18 211 11.3 14.5 0.00 0.00 0.00 73 1015.0
20260506143001 18 146 3.2 20.9 0.00 0.00 0.00 73 1015.0
20260506142458 19 212 3.2 4.8 0.00 0.00 0.00 71 1015.1
20260506141956 20 203 3.2 11.3 0.00 0.00 0.00 69 1015.3
20260506141453 20 153 1.6 4.8 0.00 0.00 0.00 68 1015.3
20260506140952 20 173 4.8 11.3 0.00 0.00 0.00 68 1015.4
20260506140448 20 155 4.8 6.4 0.00 0.00 0.00 70 1015.3
20260506135945 20 163 3.2 6.4 0.00 0.00 0.00 69 1015.4
20260506135443 20 174 3.2 9.7 0.00 0.00 0.00 69 1015.5
20260506134938 20 112 1.6 9.7 0.00 0.00 0.00 70 1015.2
20260506134435 20 214 1.6 4.8 0.00 0.00 0.00 71 1015.3
20260506133932 18 191 3.2 6.4 0.00 0.00 0.00 72 1015.2
20260506133429 18 185 3.2 9.7 0.00 0.00 0.00 73 1015.1
20260506132926 18 172 3.2 6.4 0.00 0.00 0.00 74 1015.3
20260506132422 18 181 1.6 4.8 0.00 0.00 0.00 74 1015.1
20260506131920 18 102 0.0 3.2 0.00 0.00 0.00 75 1015.2
20260506131416 18 236 4.8 9.7 0.00 0.00 0.00 75 1015.2
20260506130913 18 196 4.8 11.3 0.00 0.00 0.00 76 1015.2
20260506130410 17 201 6.4 12.9 0.00 0.00 0.00 77 1015.2
20260506125908 17 213 6.4 14.5 0.00 0.00 0.00 77 1015.3
20260506125406 17 126 3.2 6.4 0.00 0.00 0.00 77 1015.2
20260506124904 17 156 3.2 4.8 0.00 0.00 0.00 78 1015.3
20260506124401 17 179 3.2 4.8 0.00 0.00 0.00 79 1015.4
20260506123859 17 158 4.8 16.1 0.00 0.00 0.00 79 1015.4
20260506123357 17 160 3.2 4.8 0.00 0.00 0.00 78 1015.4
20260506122854 17 155 3.2 12.9 0.00 0.00 0.00 79 1015.4
20260506122350 17 118 3.2 6.4 0.00 0.00 0.00 79 1015.4
20260506121849 17 245 4.8 6.4 0.00 0.00 0.00 80 1015.6
20260506121345 16 210 3.2 6.4 0.00 0.00 0.00 81 1015.6
20260506120842 16 266 3.2 6.4 0.00 0.00 0.00 82 1015.7
20260506120340 16 194 3.2 6.4 0.00 0.00 0.00 83 1015.7
20260506115837 16 113 1.6 3.2 0.00 0.00 0.00 83 1015.7
20260506115335 16 138 3.2 6.4 0.00 0.00 0.00 84 1015.6
20260506114833 16 119 3.2 9.7 0.00 0.00 0.00 84 1015.6
20260506114331 16 149 9.7 14.5 0.00 0.00 0.00 83 1015.6
20260506113829 16 242 3.2 9.7 0.00 0.00 0.00 83 1015.5
20260506113326 16 158 1.6 3.2 0.00 0.00 0.00 84 1015.8
20260506112823 16 212 3.2 12.9 0.00 0.00 0.00 83 1015.7
20260506112320 16 206 4.8 9.7 0.00 0.00 0.00 83 1015.6
20260506111817 16 209 1.6 9.7 0.00 0.00 0.00 84 1015.8
20260506111315 16 227 6.4 12.9 0.00 0.00 0.00 84 1015.6
20260506110813 15 225 3.2 9.7 0.00 0.00 0.00 85 1015.8
20260506110309 15 169 1.6 11.3 0.00 0.00 0.00 85 1015.6
20260506105806 15 146 1.6 4.8 0.00 0.00 0.00 86 1015.7
20260506105305 15 130 1.6 4.8 0.00 0.00 0.00 87 1015.8
20260506104800 15 76 1.6 4.8 0.00 0.00 0.00 87 1015.6
20260506104258 15 146 1.6 4.8 0.00 0.00 0.00 88 1015.7
20260506103755 15 325 3.2 6.4 0.00 0.00 0.00 88 1015.7
20260506103253 15 165 1.6 4.8 0.00 0.00 0.00 88 1015.6
20260506102750 15 169 3.2 3.2 0.00 0.00 0.00 88 1015.6
20260506102248 15 175 3.2 6.4 0.00 0.00 0.00 89 1015.5
20260506101745 15 135 3.2 6.4 0.00 0.00 0.00 89 1015.4
20260506101241 14 133 1.6 4.8 0.00 0.00 0.00 90 1015.6
20260506100739 14 233 3.2 4.8 0.00 0.00 0.00 90 1015.6
20260506100237 14 87 1.6 11.3 0.00 0.00 0.00 90 1015.7
20260506095735 13 240 8.0 12.9 0.00 0.00 0.00 90 1015.6
20260506095232 13 169 3.2 9.7 0.00 0.00 0.00 91 1015.6
20260506094729 13 221 14.5 24.1 0.00 0.00 0.00 91 1015.8
20260506094227 13 101 4.8 11.3 0.00 0.00 0.00 92 1015.6
20260506093726 13 139 1.6 6.4 0.00 0.00 0.00 92 1015.6
20260506093222 13 223 4.8 6.4 0.00 0.00 0.00 91 1015.6
20260506092720 13 129 0.0 6.4 0.00 0.00 0.00 91 1015.7
20260506092217 13 138 3.2 6.4 0.00 0.00 0.00 91 1015.8
20260506091715 13 164 3.2 6.4 0.00 0.00 0.00 92 1015.7
20260506091212 13 16 4.8 6.4 0.00 0.00 0.00 92 1015.7
20260506090710 13 180 6.4 11.3 0.00 0.00 0.00 92 1015.5
20260506090206 13 181 3.2 20.9 0.00 0.00 0.00 92 1015.6
20260506085703 13 145 1.6 4.8 0.00 0.00 0.00 92 1015.8
20260506085159 13 182 1.6 6.4 0.00 0.00 0.00 92 1015.6
20260506084656 13 248 9.7 12.9 0.00 0.00 0.00 93 1015.7
20260506084153 13 232 1.6 14.5 0.00 0.00 0.00 92 1015.8
20260506083649 13 111 1.6 9.7 0.00 0.00 0.00 93 1015.7
20260506083147 13 182 1.6 12.9 0.00 0.00 0.00 93 1015.9
20260506082645 13 332 4.8 12.9 0.00 0.00 0.00 93 1015.8
20260506082144 13 192 4.8 6.4 0.00 0.00 0.00 93 1016.0
20260506081643 13 180 3.2 9.7 0.00 0.00 0.00 93 1015.9
20260506081140 13 233 3.2 6.4 0.00 0.00 0.00 93 1015.8
20260506080638 13 138 3.2 9.7 0.00 0.00 0.00 94 1015.8
20260506080134 13 125 1.6 4.8 0.00 0.00 0.00 94 1016.0